Time,TemperatureF,DewpointF,PressureIn,WindDirection,WindDirectionDegrees,WindSpeedMPH,WindSpeedGustMPH,Humidity,HourlyPrecipIn,Conditions,Clouds,dailyrainin,SoftwareType,DateUTC
2013-01-07 00:01:00,37.0,29.5,29.85,SE,135,0.0,0.0,74,0.00,,---,0.00,VWS V13.01,2013-01-07 08:01:00,
2013-01-07 00:06:00,37.0,29.5,29.85,SE,135,0.0,0.0,74,0.00,,---,0.00,VWS V13.01,2013-01-07 08:06:00,
2013-01-07 00:11:00,37.0,29.5,29.85,West,270,0.0,0.0,74,0.00,,---,0.00,VWS V13.01,2013-01-07 08:11:00,
2013-01-07 00:16:00,37.0,29.5,29.85,West,270,0.0,0.0,74,0.00,,---,0.00,VWS V13.01,2013-01-07 08:16:00,
2013-01-07 00:21:00,37.0,29.5,29.85,West,270,0.0,0.0,74,0.00,,---,0.00,VWS V13.01,2013-01-07 08:21:00,
2013-01-07 00:26:00,36.0,28.5,29.85,West,270,0.0,0.0,74,0.00,,---,0.00,VWS V13.01,2013-01-07 08:26:00,
2013-01-07 00:31:00,36.0,28.5,29.85,West,270,0.0,0.0,74,0.00,,---,0.00,VWS V13.01,2013-01-07 08:31:00,
2013-01-07 00:36:00,37.0,29.5,29.85,West,270,0.0,0.0,74,0.00,,---,0.00,VWS V13.01,2013-01-07 08:36:00,
2013-01-07 00:41:00,37.0,29.5,29.85,West,270,0.0,0.0,74,0.00,,---,0.00,VWS V13.01,2013-01-07 08:41:00,
2013-01-07 00:46:00,38.0,30.1,29.84,West,270,0.0,0.0,73,0.00,,---,0.00,VWS V13.01,2013-01-07 08:46:00,
2013-01-07 00:51:00,38.0,30.1,29.84,West,270,0.0,0.0,73,0.00,,---,0.00,VWS V13.01,2013-01-07 08:51:00,
2013-01-07 00:56:00,38.0,30.1,29.84,West,270,0.0,0.0,73,0.00,,---,0.00,VWS V13.01,2013-01-07 08:56:00,
2013-01-07 01:01:00,38.0,30.1,29.84,West,270,0.0,0.0,73,0.00,,---,0.00,VWS V13.01,2013-01-07 09:01:00,
2013-01-07 01:06:00,38.0,30.1,29.83,West,270,0.0,0.0,73,0.00,,---,0.00,VWS V13.01,2013-01-07 09:06:00,
2013-01-07 01:11:00,39.0,30.8,29.83,West,270,0.0,0.0,72,0.00,,---,0.00,VWS V13.01,2013-01-07 09:11:00,
2013-01-07 01:16:00,39.0,30.8,29.84,West,270,0.0,0.0,72,0.00,,---,0.00,VWS V13.01,2013-01-07 09:16:00,
2013-01-07 01:21:00,39.0,30.8,29.84,West,270,0.0,0.0,72,0.00,,---,0.00,VWS V13.01,2013-01-07 09:21:00,
2013-01-07 01:26:00,39.0,30.8,29.83,West,270,0.0,0.0,72,0.00,,---,0.00,VWS V13.01,2013-01-07 09:26:00,
2013-01-07 01:31:00,39.0,30.8,29.83,West,270,0.0,0.0,72,0.00,,---,0.00,VWS V13.01,2013-01-07 09:31:00,
2013-01-07 01:36:00,39.0,30.8,29.84,West,270,0.0,0.0,72,0.00,,---,0.00,VWS V13.01,2013-01-07 09:36:00,
2013-01-07 01:41:00,39.0,30.8,29.84,West,270,0.0,0.0,72,0.00,,---,0.00,VWS V13.01,2013-01-07 09:41:00,
2013-01-07 01:46:00,39.0,30.8,29.84,West,270,0.0,0.0,72,0.00,,---,0.00,VWS V13.01,2013-01-07 09:46:00,
2013-01-07 01:51:00,39.0,30.8,29.84,West,270,0.0,0.0,72,0.00,,---,0.00,VWS V13.01,2013-01-07 09:51:00,
2013-01-07 01:56:00,39.0,30.8,29.83,West,270,0.0,0.0,72,0.00,,---,0.00,VWS V13.01,2013-01-07 09:56:00,
2013-01-07 02:01:00,39.0,30.8,29.83,West,270,0.0,0.0,72,0.00,,---,0.00,VWS V13.01,2013-01-07 10:01:00,
2013-01-07 02:06:00,39.0,30.8,29.82,West,270,0.0,0.0,72,0.00,,---,0.00,VWS V13.01,2013-01-07 10:06:00,
2013-01-07 02:11:00,39.0,30.8,29.82,West,270,0.0,0.0,72,0.00,,---,0.00,VWS V13.01,2013-01-07 10:11:00,
2013-01-07 02:16:00,39.0,30.8,29.83,West,270,0.0,0.0,72,0.00,,---,0.00,VWS V13.01,2013-01-07 10:16:00,
2013-01-07 02:21:00,39.0,30.8,29.83,West,270,0.0,0.0,72,0.00,,---,0.00,VWS V13.01,2013-01-07 10:21:00,
2013-01-07 02:26:00,39.0,30.8,29.83,West,270,0.0,0.0,72,0.00,,---,0.00,VWS V13.01,2013-01-07 10:26:00,
2013-01-07 02:31:00,38.0,29.8,29.83,West,270,0.0,0.0,72,0.00,,---,0.00,VWS V13.01,2013-01-07 10:31:00,
2013-01-07 02:36:00,38.0,29.8,29.82,West,270,0.0,0.0,72,0.00,,---,0.00,VWS V13.01,2013-01-07 10:36:00,
2013-01-07 02:41:00,38.0,29.8,29.82,West,270,0.0,0.0,72,0.00,,---,0.00,VWS V13.01,2013-01-07 10:41:00,
2013-01-07 02:46:00,37.0,29.2,29.84,West,270,0.0,0.0,73,0.00,,---,0.00,VWS V13.01,2013-01-07 10:46:00,
2013-01-07 02:51:00,37.0,29.2,29.84,West,270,0.0,0.0,73,0.00,,---,0.00,VWS V13.01,2013-01-07 10:51:00,
2013-01-07 02:56:00,37.0,29.2,29.85,West,270,0.0,0.0,73,0.00,,---,0.00,VWS V13.01,2013-01-07 10:56:00,
2013-01-07 03:01:00,37.0,29.2,29.85,West,270,0.0,0.0,73,0.00,,---,0.00,VWS V13.01,2013-01-07 11:01:00,
2013-01-07 03:06:00,37.0,29.2,29.85,West,270,0.0,0.0,73,0.00,,---,0.00,VWS V13.01,2013-01-07 11:06:00,
2013-01-07 03:11:00,37.0,29.2,29.85,West,270,0.0,0.0,73,0.00,,---,0.00,VWS V13.01,2013-01-07 11:11:00,
2013-01-07 03:16:00,37.0,29.2,29.85,South,180,0.0,0.0,73,0.00,,---,0.00,VWS V13.01,2013-01-07 11:16:00,
2013-01-07 03:21:00,38.0,29.8,29.85,South,180,0.0,0.0,72,0.00,,---,0.00,VWS V13.01,2013-01-07 11:21:00,
2013-01-07 03:26:00,37.0,29.2,29.85,South,180,0.0,0.0,73,0.00,,---,0.00,VWS V13.01,2013-01-07 11:26:00,
2013-01-07 03:31:00,37.0,29.2,29.85,SSE,157,0.0,0.0,73,0.00,,---,0.00,VWS V13.01,2013-01-07 11:31:00,
2013-01-07 03:36:00,37.0,29.2,29.85,SSE,157,0.0,0.0,73,0.00,,---,0.00,VWS V13.01,2013-01-07 11:36:00,
2013-01-07 03:41:00,37.0,29.2,29.85,SSE,157,0.0,0.0,73,0.00,,---,0.00,VWS V13.01,2013-01-07 11:41:00,
2013-01-07 03:46:00,37.0,29.2,29.85,SSE,157,0.0,0.0,73,0.00,,---,0.00,VWS V13.01,2013-01-07 11:46:00,
2013-01-07 03:51:00,38.0,29.8,29.85,SSE,157,0.0,0.0,72,0.00,,---,0.00,VWS V13.01,2013-01-07 11:51:00,
2013-01-07 03:56:00,38.0,29.8,29.84,SSE,157,0.0,0.0,72,0.00,,---,0.00,VWS V13.01,2013-01-07 11:56:00,
2013-01-07 04:01:00,38.0,29.8,29.84,SSE,157,0.0,0.0,72,0.00,,---,0.00,VWS V13.01,2013-01-07 12:01:00,
2013-01-07 04:06:00,39.0,30.8,29.85,West,270,0.0,0.0,72,0.00,,---,0.00,VWS V13.01,2013-01-07 12:06:00,
2013-01-07 04:11:00,39.0,30.8,29.85,West,270,0.0,0.0,72,0.00,,---,0.00,VWS V13.01,2013-01-07 12:11:00,
2013-01-07 04:16:00,39.0,30.8,29.84,West,270,0.0,0.0,72,0.00,,---,0.00,VWS V13.01,2013-01-07 12:16:00,
2013-01-07 04:21:00,39.0,30.8,29.84,West,270,0.0,1.0,72,0.00,,---,0.00,VWS V13.01,2013-01-07 12:21:00,
2013-01-07 04:26:00,39.0,30.8,29.84,West,270,0.0,0.0,72,0.00,,---,0.00,VWS V13.01,2013-01-07 12:26:00,
2013-01-07 04:31:00,39.0,30.8,29.84,WNW,292,0.0,0.0,72,0.00,,---,0.00,VWS V13.01,2013-01-07 12:31:00,
2013-01-07 04:36:00,38.0,29.8,29.85,WNW,292,0.0,0.0,72,0.00,,---,0.00,VWS V13.01,2013-01-07 12:36:00,
2013-01-07 04:41:00,38.0,29.8,29.85,West,270,0.0,0.0,72,0.00,,---,0.00,VWS V13.01,2013-01-07 12:41:00,
2013-01-07 04:46:00,37.0,29.2,29.87,West,270,0.0,0.0,73,0.00,,---,0.00,VWS V13.01,2013-01-07 12:46:00,
2013-01-07 04:51:00,37.0,29.2,29.87,West,270,0.0,0.0,73,0.00,,---,0.00,VWS V13.01,2013-01-07 12:51:00,
2013-01-07 04:56:00,37.0,29.5,29.86,West,270,0.0,0.0,74,0.00,,---,0.00,VWS V13.01,2013-01-07 12:56:00,
2013-01-07 05:01:00,37.0,29.2,29.86,West,270,0.0,0.0,73,0.00,,---,0.00,VWS V13.01,2013-01-07 13:01:00,
2013-01-07 05:06:00,37.0,29.5,29.86,West,270,0.0,0.0,74,0.00,,---,0.00,VWS V13.01,2013-01-07 13:06:00,
2013-01-07 05:11:00,37.0,29.2,29.86,West,270,0.0,0.0,73,0.00,,---,0.00,VWS V13.01,2013-01-07 13:11:00,
2013-01-07 05:16:00,37.0,29.2,29.86,West,270,0.0,0.0,73,0.00,,---,0.00,VWS V13.01,2013-01-07 13:16:00,
2013-01-07 05:21:00,37.0,29.2,29.86,West,270,0.0,0.0,73,0.00,,---,0.00,VWS V13.01,2013-01-07 13:21:00,
2013-01-07 05:26:00,37.0,29.2,29.84,West,270,0.0,0.0,73,0.00,,---,0.00,VWS V13.01,2013-01-07 13:26:00,
2013-01-07 05:31:00,37.0,29.2,29.84,West,270,0.0,0.0,73,0.00,,---,0.00,VWS V13.01,2013-01-07 13:31:00,
2013-01-07 05:36:00,37.0,29.2,29.85,West,270,0.0,0.0,73,0.00,,---,0.00,VWS V13.01,2013-01-07 13:36:00,
2013-01-07 05:41:00,36.0,28.2,29.85,West,270,0.0,0.0,73,0.00,,---,0.00,VWS V13.01,2013-01-07 13:41:00,
2013-01-07 05:46:00,36.0,28.2,29.85,West,270,0.0,0.0,73,0.00,,---,0.00,VWS V13.01,2013-01-07 13:46:00,
2013-01-07 05:51:00,36.0,28.2,29.85,West,270,0.0,0.0,73,0.00,,---,0.00,VWS V13.01,2013-01-07 13:51:00,
2013-01-07 05:56:00,37.0,29.2,29.86,West,270,0.0,0.0,73,0.00,,---,0.00,VWS V13.01,2013-01-07 13:56:00,
2013-01-07 06:01:00,37.0,29.2,29.86,West,270,0.0,0.0,73,0.00,,---,0.00,VWS V13.01,2013-01-07 14:01:00,
2013-01-07 06:06:00,37.0,29.5,29.86,West,270,0.0,0.0,74,0.00,,---,0.00,VWS V13.01,2013-01-07 14:06:00,
2013-01-07 06:11:00,37.0,29.5,29.86,West,270,0.0,0.0,74,0.00,,---,0.00,VWS V13.01,2013-01-07 14:11:00,
2013-01-07 06:16:00,36.0,28.5,29.85,West,270,0.0,0.0,74,0.00,,---,0.00,VWS V13.01,2013-01-07 14:16:00,
2013-01-07 06:21:00,36.0,28.5,29.85,West,270,0.0,0.0,74,0.00,,---,0.00,VWS V13.01,2013-01-07 14:21:00,
2013-01-07 06:26:00,36.0,28.5,29.85,West,270,0.0,0.0,74,0.00,,---,0.00,VWS V13.01,2013-01-07 14:26:00,
2013-01-07 06:31:00,35.0,27.6,29.85,West,270,0.0,0.0,74,0.00,,---,0.00,VWS V13.01,2013-01-07 14:31:00,
2013-01-07 06:36:00,35.0,27.6,29.88,West,270,0.0,0.0,74,0.00,,---,0.00,VWS V13.01,2013-01-07 14:36:00,
2013-01-07 06:41:00,35.0,27.6,29.88,West,270,0.0,0.0,74,0.00,,---,0.00,VWS V13.01,2013-01-07 14:41:00,
2013-01-07 06:46:00,35.0,27.6,29.86,SSE,157,0.0,0.0,74,0.00,,---,0.00,VWS V13.01,2013-01-07 14:46:00,
2013-01-07 06:51:00,35.0,27.6,29.86,SSE,157,0.0,0.0,74,0.00,,---,0.00,VWS V13.01,2013-01-07 14:51:00,
2013-01-07 06:56:00,36.0,28.5,29.88,West,270,0.0,0.0,74,0.00,,---,0.00,VWS V13.01,2013-01-07 14:56:00,
2013-01-07 07:01:00,35.0,27.6,29.88,West,270,0.0,0.0,74,0.00,,---,0.00,VWS V13.01,2013-01-07 15:01:00,
2013-01-07 07:06:00,35.0,27.6,29.88,West,270,0.0,0.0,74,0.00,,---,0.00,VWS V13.01,2013-01-07 15:06:00,
2013-01-07 07:11:00,35.0,27.6,29.88,WNW,292,0.0,0.0,74,0.00,,---,0.00,VWS V13.01,2013-01-07 15:11:00,
2013-01-07 07:16:00,35.0,27.6,29.88,WNW,292,0.0,0.0,74,0.00,,---,0.00,VWS V13.01,2013-01-07 15:16:00,
2013-01-07 07:21:00,35.0,27.6,29.88,SSW,202,0.0,0.0,74,0.00,,---,0.00,VWS V13.01,2013-01-07 15:21:00,
2013-01-07 07:26:00,35.0,27.6,29.90,South,180,0.0,0.0,74,0.00,,---,0.00,VWS V13.01,2013-01-07 15:26:00,
2013-01-07 07:31:00,35.0,27.6,29.90,South,180,0.0,0.0,74,0.00,,---,0.00,VWS V13.01,2013-01-07 15:31:00,
2013-01-07 07:36:00,35.0,27.6,29.88,SW,225,0.0,0.0,74,0.00,,---,0.00,VWS V13.01,2013-01-07 15:36:00,
2013-01-07 07:41:00,35.0,27.6,29.88,East,90,0.0,0.0,74,0.00,,---,0.00,VWS V13.01,2013-01-07 15:41:00,
2013-01-07 07:46:00,35.0,27.6,29.89,SE,135,0.0,0.0,74,0.00,,---,0.00,VWS V13.01,2013-01-07 15:46:00,
2013-01-07 07:51:00,35.0,27.6,29.89,SSW,202,0.0,0.0,74,0.00,,---,0.00,VWS V13.01,2013-01-07 15:51:00,
2013-01-07 07:56:00,35.0,27.6,29.89,West,270,0.0,0.0,74,0.00,,---,0.00,VWS V13.01,2013-01-07 15:56:00,
2013-01-07 08:01:00,35.0,27.6,29.89,West,270,0.0,0.0,74,0.00,,---,0.00,VWS V13.01,2013-01-07 16:01:00,
2013-01-07 08:06:00,35.0,27.6,29.91,WNW,292,0.0,0.0,74,0.00,,---,0.00,VWS V13.01,2013-01-07 16:06:00,
2013-01-07 08:11:00,35.0,27.6,29.91,WNW,292,0.0,0.0,74,0.00,,---,0.00,VWS V13.01,2013-01-07 16:11:00,
2013-01-07 08:16:00,35.0,27.6,29.91,SSW,202,0.0,0.0,74,0.00,,---,0.00,VWS V13.01,2013-01-07 16:16:00,
2013-01-07 08:21:00,35.0,27.6,29.91,SE,135,0.0,0.0,74,0.00,,---,0.00,VWS V13.01,2013-01-07 16:21:00,
2013-01-07 08:26:00,35.0,27.6,29.90,WSW,247,0.0,0.0,74,0.00,,---,0.00,VWS V13.01,2013-01-07 16:26:00,
2013-01-07 08:31:00,35.0,27.6,29.90,West,270,0.0,0.0,74,0.00,,---,0.00,VWS V13.01,2013-01-07 16:31:00,
2013-01-07 08:36:00,35.0,27.6,29.88,SE,135,0.0,0.0,74,0.00,,---,0.00,VWS V13.01,2013-01-07 16:36:00,
2013-01-07 08:41:00,35.0,27.6,29.88,East,90,0.0,1.0,74,0.00,,---,0.00,VWS V13.01,2013-01-07 16:41:00,
2013-01-07 08:46:00,35.0,27.6,29.89,ESE,112,0.0,1.0,74,0.00,,---,0.00,VWS V13.01,2013-01-07 16:46:00,
2013-01-07 08:51:00,35.0,27.6,29.89,East,90,0.0,0.0,74,0.00,,---,0.00,VWS V13.01,2013-01-07 16:51:00,
2013-01-07 08:56:00,35.0,27.6,29.90,East,90,0.0,0.0,74,0.00,,---,0.00,VWS V13.01,2013-01-07 16:56:00,
2013-01-07 09:01:00,36.0,28.2,29.90,WSW,247,0.0,0.0,73,0.00,,---,0.00,VWS V13.01,2013-01-07 17:01:00,
2013-01-07 09:06:00,36.0,28.5,29.90,ESE,112,0.0,0.0,74,0.00,,---,0.00,VWS V13.01,2013-01-07 17:06:00,
2013-01-07 09:11:00,36.0,28.2,29.90,WNW,292,0.0,1.0,73,0.00,,---,0.00,VWS V13.01,2013-01-07 17:11:00,
2013-01-07 09:16:00,36.0,28.2,29.92,WNW,292,0.0,0.0,73,0.00,,---,0.00,VWS V13.01,2013-01-07 17:16:00,
2013-01-07 09:21:00,36.0,28.2,29.92,WNW,292,0.0,0.0,73,0.00,,---,0.00,VWS V13.01,2013-01-07 17:21:00,
2013-01-07 09:26:00,37.0,29.2,29.94,WNW,292,0.0,0.0,73,0.00,,---,0.00,VWS V13.01,2013-01-07 17:26:00,
2013-01-07 09:31:00,37.0,29.2,29.94,WNW,292,0.0,0.0,73,0.00,,---,0.00,VWS V13.01,2013-01-07 17:31:00,
2013-01-07 09:36:00,37.0,29.2,29.94,NW,315,0.0,0.0,73,0.00,,---,0.00,VWS V13.01,2013-01-07 17:36:00,
2013-01-07 09:41:00,38.0,29.8,29.94,NW,315,0.0,0.0,72,0.00,,---,0.00,VWS V13.01,2013-01-07 17:41:00,
2013-01-07 09:46:00,39.0,30.8,29.94,NW,315,0.0,0.0,72,0.00,,---,0.00,VWS V13.01,2013-01-07 17:46:00,
2013-01-07 09:51:00,39.0,30.8,29.94,ESE,112,0.0,0.0,72,0.00,,---,0.00,VWS V13.01,2013-01-07 17:51:00,
2013-01-07 09:56:00,39.0,30.8,29.95,WSW,247,0.0,0.0,72,0.00,,---,0.00,VWS V13.01,2013-01-07 17:56:00,
2013-01-07 10:01:00,40.0,31.7,29.95,ESE,112,0.0,1.0,72,0.00,,---,0.00,VWS V13.01,2013-01-07 18:01:00,
2013-01-07 10:06:00,40.0,31.7,29.93,ESE,112,0.0,0.0,72,0.00,,---,0.00,VWS V13.01,2013-01-07 18:06:00,
2013-01-07 10:11:00,40.0,31.7,29.93,SSE,157,0.0,5.0,72,0.00,,---,0.00,VWS V13.01,2013-01-07 18:11:00,
2013-01-07 10:16:00,40.0,32.1,29.94,ESE,112,0.0,5.0,73,0.00,,---,0.00,VWS V13.01,2013-01-07 18:16:00,
2013-01-07 10:21:00,40.0,32.1,29.94,East,90,1.0,1.0,73,0.00,,---,0.00,VWS V13.01,2013-01-07 18:21:00,
2013-01-07 10:26:00,40.0,32.1,29.96,ENE,67,0.0,1.0,73,0.00,,---,0.00,VWS V13.01,2013-01-07 18:26:00,
2013-01-07 10:31:00,40.0,32.1,29.96,East,90,3.0,5.0,73,0.00,,---,0.00,VWS V13.01,2013-01-07 18:31:00,
2013-01-07 10:36:00,40.0,32.1,29.94,East,90,0.0,6.0,73,0.00,,---,0.00,VWS V13.01,2013-01-07 18:36:00,
2013-01-07 10:41:00,40.0,32.1,29.94,East,90,0.0,1.0,73,0.00,,---,0.00,VWS V13.01,2013-01-07 18:41:00,
2013-01-07 10:46:00,41.0,33.0,29.94,SE,135,2.0,4.0,73,0.00,,---,0.00,VWS V13.01,2013-01-07 18:46:00,
2013-01-07 10:51:00,42.0,34.0,29.94,East,90,0.0,6.0,73,0.00,,---,0.00,VWS V13.01,2013-01-07 18:51:00,
2013-01-07 10:56:00,43.0,35.3,29.93,ESE,112,3.0,3.0,74,0.00,,---,0.00,VWS V13.01,2013-01-07 18:56:00,
2013-01-07 11:01:00,43.0,35.3,29.93,NE,45,0.0,7.0,74,0.00,,---,0.00,VWS V13.01,2013-01-07 19:01:00,
2013-01-07 11:06:00,43.0,35.3,29.92,ENE,67,0.0,3.0,74,0.00,,---,0.00,VWS V13.01,2013-01-07 19:06:00,
2013-01-07 11:11:00,44.0,36.3,29.92,NE,45,0.0,1.0,74,0.00,,---,0.00,VWS V13.01,2013-01-07 19:11:00,
2013-01-07 11:16:00,44.0,36.3,29.93,NE,45,0.0,2.0,74,0.00,,---,0.00,VWS V13.01,2013-01-07 19:16:00,
2013-01-07 11:21:00,45.0,37.2,29.93,SSW,202,0.0,1.0,74,0.00,,---,0.00,VWS V13.01,2013-01-07 19:21:00,
2013-01-07 11:26:00,45.0,37.2,29.90,East,90,0.0,1.0,74,0.00,,---,0.00,VWS V13.01,2013-01-07 19:26:00,
2013-01-07 11:31:00,46.0,38.2,29.90,East,90,0.0,0.0,74,0.00,,---,0.00,VWS V13.01,2013-01-07 19:31:00,
2013-01-07 11:36:00,46.0,38.2,29.91,NE,45,0.0,0.0,74,0.00,,---,0.00,VWS V13.01,2013-01-07 19:36:00,
2013-01-07 11:41:00,46.0,38.2,29.91,East,90,0.0,0.0,74,0.00,,---,0.00,VWS V13.01,2013-01-07 19:41:00,
2013-01-07 11:46:00,47.0,39.2,29.89,NE,45,0.0,2.0,74,0.00,,---,0.00,VWS V13.01,2013-01-07 19:46:00,
2013-01-07 11:51:00,47.0,39.2,29.89,SE,135,1.0,4.0,74,0.00,,---,0.00,VWS V13.01,2013-01-07 19:51:00,
2013-01-07 11:56:00,47.0,39.2,29.88,SE,135,0.0,0.0,74,0.00,,---,0.00,VWS V13.01,2013-01-07 19:56:00,
2013-01-07 12:01:00,47.0,39.2,29.88,ESE,112,0.0,5.0,74,0.00,,---,0.00,VWS V13.01,2013-01-07 20:01:00,
2013-01-07 12:06:00,47.0,39.2,29.89,ESE,112,5.0,5.0,74,0.00,,---,0.00,VWS V13.01,2013-01-07 20:06:00,
2013-01-07 12:11:00,48.0,40.5,29.89,ESE,112,0.0,0.0,75,0.00,,---,0.00,VWS V13.01,2013-01-07 20:11:00,
2013-01-07 12:16:00,48.0,40.5,29.88,WSW,247,0.0,1.0,75,0.00,,---,0.00,VWS V13.01,2013-01-07 20:16:00,
2013-01-07 12:19:00,48.0,40.5,29.88,NE,45,0.0,0.0,75,0.00,,---,0.00,VWS V13.01,2013-01-07 20:19:00,
2013-01-07 12:24:00,48.0,40.5,29.88,SSW,202,0.0,2.0,75,0.00,,---,0.00,VWS V13.01,2013-01-07 20:24:00,
2013-01-07 12:29:00,48.0,40.5,29.88,NNE,22,0.0,0.0,75,0.00,,---,0.00,VWS V13.01,2013-01-07 20:29:00,
2013-01-07 12:34:00,47.0,39.2,29.88,WSW,247,0.0,0.0,74,0.00,,---,0.00,VWS V13.01,2013-01-07 20:34:00,
2013-01-07 12:39:00,47.0,39.2,29.88,NW,315,0.0,1.0,74,0.00,,---,0.00,VWS V13.01,2013-01-07 20:39:00,
2013-01-07 12:44:00,46.0,38.2,29.88,WNW,292,0.0,0.0,74,0.00,,---,0.00,VWS V13.01,2013-01-07 20:44:00,
2013-01-07 12:49:00,46.0,38.2,29.88,WNW,292,0.0,0.0,74,0.00,,---,0.00,VWS V13.01,2013-01-07 20:49:00,
2013-01-07 12:54:00,46.0,38.5,29.87,NW,315,0.0,0.0,75,0.00,,---,0.00,VWS V13.01,2013-01-07 20:54:00,
2013-01-07 12:59:00,46.0,38.2,29.87,West,270,4.0,4.0,74,0.00,,---,0.00,VWS V13.01,2013-01-07 20:59:00,
2013-01-07 13:04:00,46.0,38.2,29.86,North,360,0.0,0.0,74,0.00,,---,0.00,VWS V13.01,2013-01-07 21:04:00,
2013-01-07 13:09:00,47.0,39.2,29.86,West,270,0.0,0.0,74,0.00,,---,0.00,VWS V13.01,2013-01-07 21:09:00,
2013-01-07 13:14:00,47.0,39.5,29.89,South,180,0.0,0.0,75,0.00,,---,0.00,VWS V13.01,2013-01-07 21:14:00,
2013-01-07 13:19:00,47.0,39.5,29.89,WNW,292,0.0,5.0,75,0.00,,---,0.00,VWS V13.01,2013-01-07 21:19:00,
2013-01-07 13:24:00,46.0,38.5,29.89,West,270,0.0,0.0,75,0.00,,---,0.00,VWS V13.01,2013-01-07 21:24:00,
2013-01-07 13:29:00,46.0,38.5,29.89,SE,135,0.0,0.0,75,0.00,,---,0.00,VWS V13.01,2013-01-07 21:29:00,
2013-01-07 13:34:00,46.0,38.5,29.90,SSE,157,0.0,0.0,75,0.00,,---,0.00,VWS V13.01,2013-01-07 21:34:00,
2013-01-07 13:39:00,46.0,38.2,29.90,East,90,0.0,1.0,74,0.00,,---,0.00,VWS V13.01,2013-01-07 21:39:00,
2013-01-07 13:44:00,46.0,38.5,29.88,WSW,247,1.0,1.0,75,0.00,,---,0.00,VWS V13.01,2013-01-07 21:44:00,
2013-01-07 13:49:00,46.0,38.2,29.88,SSE,157,0.0,0.0,74,0.00,,---,0.00,VWS V13.01,2013-01-07 21:49:00,
2013-01-07 13:54:00,46.0,38.2,29.88,SE,135,0.0,0.0,74,0.00,,---,0.00,VWS V13.01,2013-01-07 21:54:00,
2013-01-07 13:59:00,46.0,38.2,29.88,SSW,202,0.0,0.0,74,0.00,,---,0.00,VWS V13.01,2013-01-07 21:59:00,
2013-01-07 14:04:00,46.0,38.2,29.88,East,90,0.0,0.0,74,0.00,,---,0.00,VWS V13.01,2013-01-07 22:04:00,
2013-01-07 14:09:00,46.0,38.2,29.88,SE,135,0.0,0.0,74,0.00,,---,0.00,VWS V13.01,2013-01-07 22:09:00,
2013-01-07 14:14:00,47.0,39.2,29.86,NE,45,0.0,0.0,74,0.00,,---,0.00,VWS V13.01,2013-01-07 22:14:00,
2013-01-07 14:19:00,46.0,38.2,29.86,West,270,0.0,0.0,74,0.00,,---,0.00,VWS V13.01,2013-01-07 22:19:00,
2013-01-07 14:24:00,46.0,38.2,29.88,South,180,0.0,0.0,74,0.00,,---,0.00,VWS V13.01,2013-01-07 22:24:00,
2013-01-07 14:29:00,46.0,38.2,29.88,SE,135,0.0,0.0,74,0.00,,---,0.00,VWS V13.01,2013-01-07 22:29:00,
2013-01-07 14:34:00,46.0,38.2,29.88,SE,135,0.0,0.0,74,0.00,,---,0.00,VWS V13.01,2013-01-07 22:34:00,
2013-01-07 14:39:00,46.0,38.2,29.88,SE,135,0.0,0.0,74,0.00,,---,0.00,VWS V13.01,2013-01-07 22:39:00,
2013-01-07 14:44:00,46.0,38.2,29.89,SE,135,0.0,0.0,74,0.00,,---,0.00,VWS V13.01,2013-01-07 22:44:00,
2013-01-07 14:49:00,47.0,39.2,29.89,South,180,0.0,0.0,74,0.00,,---,0.00,VWS V13.01,2013-01-07 22:49:00,
2013-01-07 14:54:00,47.0,39.2,29.88,North,360,0.0,0.0,74,0.00,,---,0.00,VWS V13.01,2013-01-07 22:54:00,
2013-01-07 14:59:00,48.0,40.5,29.88,ESE,112,0.0,0.0,75,0.00,,---,0.00,VWS V13.01,2013-01-07 22:59:00,
2013-01-07 15:04:00,47.0,39.2,29.88,SE,135,0.0,0.0,74,0.00,,---,0.00,VWS V13.01,2013-01-07 23:04:00,
2013-01-07 15:09:00,47.0,39.2,29.88,SE,135,0.0,0.0,74,0.00,,---,0.00,VWS V13.01,2013-01-07 23:09:00,
2013-01-07 15:14:00,46.0,38.2,29.86,ESE,112,1.0,1.0,74,0.00,,---,0.00,VWS V13.01,2013-01-07 23:14:00,
2013-01-07 15:19:00,46.0,38.2,29.86,SE,135,0.0,0.0,74,0.00,,---,0.00,VWS V13.01,2013-01-07 23:19:00,
2013-01-07 15:24:00,46.0,38.2,29.87,East,90,0.0,0.0,74,0.00,,---,0.00,VWS V13.01,2013-01-07 23:24:00,
2013-01-07 15:29:00,46.0,38.2,29.87,NW,315,0.0,0.0,74,0.00,,---,0.00,VWS V13.01,2013-01-07 23:29:00,
2013-01-07 15:34:00,46.0,38.2,29.88,West,270,0.0,0.0,74,0.00,,---,0.00,VWS V13.01,2013-01-07 23:34:00,
2013-01-07 15:39:00,46.0,38.2,29.88,ESE,112,0.0,0.0,74,0.00,,---,0.00,VWS V13.01,2013-01-07 23:39:00,
2013-01-07 15:44:00,46.0,38.2,29.87,ESE,112,0.0,0.0,74,0.00,,---,0.00,VWS V13.01,2013-01-07 23:44:00,
2013-01-07 15:49:00,46.0,38.2,29.87,ESE,112,0.0,0.0,74,0.00,,---,0.00,VWS V13.01,2013-01-07 23:49:00,
2013-01-07 15:54:00,46.0,38.2,29.86,ESE,112,0.0,0.0,74,0.00,,---,0.00,VWS V13.01,2013-01-07 23:54:00,
2013-01-07 15:59:00,45.0,37.2,29.86,ESE,112,0.0,0.0,74,0.00,,---,0.00,VWS V13.01,2013-01-07 23:59:00,
2013-01-07 16:04:00,45.0,37.2,29.85,ESE,112,0.0,0.0,74,0.00,,---,0.00,VWS V13.01,2013-01-08 00:04:00,
2013-01-07 16:09:00,45.0,37.2,29.85,West,270,1.0,1.0,74,0.00,,---,0.00,VWS V13.01,2013-01-08 00:09:00,
2013-01-07 16:14:00,45.0,37.2,29.86,West,270,0.0,0.0,74,0.00,,---,0.00,VWS V13.01,2013-01-08 00:14:00,
2013-01-07 16:19:00,45.0,37.2,29.86,West,270,0.0,0.0,74,0.00,,---,0.00,VWS V13.01,2013-01-08 00:19:00,
2013-01-07 16:24:00,45.0,37.2,29.87,West,270,0.0,0.0,74,0.00,,---,0.00,VWS V13.01,2013-01-08 00:24:00,
2013-01-07 16:29:00,45.0,37.2,29.87,West,270,0.0,0.0,74,0.00,,---,0.00,VWS V13.01,2013-01-08 00:29:00,
2013-01-07 16:34:00,45.0,37.2,29.87,WNW,292,0.0,0.0,74,0.00,,---,0.00,VWS V13.01,2013-01-08 00:34:00,
2013-01-07 16:39:00,45.0,37.2,29.87,WNW,292,0.0,0.0,74,0.00,,---,0.00,VWS V13.01,2013-01-08 00:39:00,
2013-01-07 16:44:00,44.0,36.3,29.85,WNW,292,0.0,0.0,74,0.00,,---,0.00,VWS V13.01,2013-01-08 00:44:00,
2013-01-07 16:49:00,44.0,36.3,29.85,WNW,292,0.0,0.0,74,0.00,,---,0.00,VWS V13.01,2013-01-08 00:49:00,
2013-01-07 16:54:00,44.0,36.3,29.86,WNW,292,0.0,0.0,74,0.00,,---,0.00,VWS V13.01,2013-01-08 00:54:00,
2013-01-07 16:59:00,44.0,36.3,29.86,WNW,292,0.0,0.0,74,0.00,,---,0.00,VWS V13.01,2013-01-08 00:59:00,
2013-01-07 17:04:00,43.0,35.3,29.88,WNW,292,0.0,0.0,74,0.00,,---,0.00,VWS V13.01,2013-01-08 01:04:00,
2013-01-07 17:09:00,43.0,35.3,29.88,WNW,292,0.0,0.0,74,0.00,,---,0.00,VWS V13.01,2013-01-08 01:09:00,
2013-01-07 17:14:00,43.0,35.3,29.86,WNW,292,0.0,0.0,74,0.00,,---,0.00,VWS V13.01,2013-01-08 01:14:00,
2013-01-07 17:19:00,43.0,35.3,29.86,WNW,292,0.0,0.0,74,0.00,,---,0.00,VWS V13.01,2013-01-08 01:19:00,
2013-01-07 17:24:00,43.0,35.3,29.88,WNW,292,0.0,0.0,74,0.00,,---,0.00,VWS V13.01,2013-01-08 01:24:00,
2013-01-07 17:29:00,43.0,35.3,29.88,WNW,292,0.0,0.0,74,0.00,,---,0.00,VWS V13.01,2013-01-08 01:29:00,
2013-01-07 17:34:00,43.0,35.3,29.87,WNW,292,0.0,0.0,74,0.00,,---,0.00,VWS V13.01,2013-01-08 01:34:00,
2013-01-07 17:39:00,43.0,35.3,29.87,WNW,292,0.0,0.0,74,0.00,,---,0.00,VWS V13.01,2013-01-08 01:39:00,
2013-01-07 17:44:00,43.0,35.3,29.86,WNW,292,0.0,0.0,74,0.00,,---,0.00,VWS V13.01,2013-01-08 01:44:00,
2013-01-07 17:49:00,43.0,35.3,29.86,WNW,292,0.0,0.0,74,0.00,,---,0.00,VWS V13.01,2013-01-08 01:49:00,
2013-01-07 17:54:00,43.0,35.3,29.87,WNW,292,0.0,0.0,74,0.00,,---,0.00,VWS V13.01,2013-01-08 01:54:00,
2013-01-07 17:59:00,43.0,35.3,29.87,WNW,292,0.0,0.0,74,0.00,,---,0.00,VWS V13.01,2013-01-08 01:59:00,
2013-01-07 18:04:00,42.0,34.0,29.87,WNW,292,0.0,0.0,73,0.00,,---,0.00,VWS V13.01,2013-01-08 02:04:00,
2013-01-07 18:09:00,42.0,34.0,29.87,WNW,292,0.0,0.0,73,0.00,,---,0.00,VWS V13.01,2013-01-08 02:09:00,
2013-01-07 18:14:00,42.0,34.0,29.87,SSE,157,0.0,0.0,73,0.00,,---,0.00,VWS V13.01,2013-01-08 02:14:00,
2013-01-07 18:19:00,42.0,34.0,29.87,SE,135,0.0,0.0,73,0.00,,---,0.00,VWS V13.01,2013-01-08 02:19:00,
2013-01-07 18:24:00,42.0,34.0,29.87,SE,135,0.0,0.0,73,0.00,,---,0.00,VWS V13.01,2013-01-08 02:24:00,
2013-01-07 18:29:00,42.0,34.0,29.87,SE,135,0.0,0.0,73,0.00,,---,0.00,VWS V13.01,2013-01-08 02:29:00,
2013-01-07 18:34:00,42.0,34.0,29.87,SE,135,0.0,0.0,73,0.00,,---,0.00,VWS V13.01,2013-01-08 02:34:00,
2013-01-07 18:39:00,42.0,34.0,29.87,SE,135,0.0,0.0,73,0.00,,---,0.00,VWS V13.01,2013-01-08 02:39:00,
2013-01-07 18:44:00,42.0,34.0,29.87,SE,135,0.0,0.0,73,0.00,,---,0.00,VWS V13.01,2013-01-08 02:44:00,
2013-01-07 18:49:00,42.0,34.0,29.87,SE,135,0.0,0.0,73,0.00,,---,0.00,VWS V13.01,2013-01-08 02:49:00,
2013-01-07 18:53:00,42.0,34.0,29.87,SE,135,0.0,0.0,73,0.00,,---,0.00,VWS V13.01,2013-01-08 02:53:00,
2013-01-07 18:58:00,42.0,34.0,29.87,SE,135,0.0,0.0,73,0.00,,---,0.00,VWS V13.01,2013-01-08 02:58:00,
2013-01-07 19:03:00,42.0,34.0,29.87,SE,135,0.0,0.0,73,0.00,,---,0.00,VWS V13.01,2013-01-08 03:03:00,
2013-01-07 19:09:00,42.0,34.0,29.87,SE,135,0.0,0.0,73,0.00,,---,0.00,VWS V13.01,2013-01-08 03:09:00,
2013-01-07 19:14:00,42.0,34.0,29.87,SE,135,0.0,0.0,73,0.00,,---,0.00,VWS V13.01,2013-01-08 03:14:00,
2013-01-07 19:18:00,42.0,34.0,29.87,SE,135,0.0,0.0,73,0.00,,---,0.00,VWS V13.01,2013-01-08 03:18:00,
2013-01-07 19:24:00,42.0,34.0,29.87,SE,135,0.0,0.0,73,0.00,,---,0.00,VWS V13.01,2013-01-08 03:24:00,
2013-01-07 19:29:00,42.0,34.0,29.87,SE,135,0.0,0.0,73,0.00,,---,0.00,VWS V13.01,2013-01-08 03:29:00,
2013-01-07 19:34:00,42.0,34.0,29.87,SE,135,0.0,0.0,73,0.00,,---,0.00,VWS V13.01,2013-01-08 03:34:00,
2013-01-07 19:39:00,42.0,34.0,29.87,SE,135,0.0,0.0,73,0.00,,---,0.00,VWS V13.01,2013-01-08 03:39:00,
2013-01-07 19:44:00,42.0,34.0,29.87,SE,135,0.0,0.0,73,0.00,,---,0.00,VWS V13.01,2013-01-08 03:44:00,
2013-01-07 19:48:00,42.0,34.0,29.87,SE,135,0.0,0.0,73,0.00,,---,0.00,VWS V13.01,2013-01-08 03:48:00,
2013-01-07 19:53:00,42.0,34.0,29.87,SE,135,0.0,0.0,73,0.00,,---,0.00,VWS V13.01,2013-01-08 03:53:00,
2013-01-07 19:58:00,42.0,34.0,29.87,SE,135,0.0,0.0,73,0.00,,---,0.00,VWS V13.01,2013-01-08 03:58:00,
2013-01-07 20:03:00,42.0,34.0,29.87,SE,135,0.0,0.0,73,0.00,,---,0.00,VWS V13.01,2013-01-08 04:03:00,
2013-01-07 20:08:00,42.0,34.0,29.87,ESE,112,0.0,0.0,73,0.00,,---,0.00,VWS V13.01,2013-01-08 04:08:00,
2013-01-07 20:13:00,41.0,33.0,29.88,SE,135,0.0,0.0,73,0.00,,---,0.00,VWS V13.01,2013-01-08 04:13:00,
2013-01-07 20:18:00,40.0,32.1,29.88,SE,135,0.0,0.0,73,0.00,,---,0.00,VWS V13.01,2013-01-08 04:18:00,
2013-01-07 20:23:00,40.0,32.1,29.88,SE,135,0.0,0.0,73,0.00,,---,0.00,VWS V13.01,2013-01-08 04:23:00,
2013-01-07 20:28:00,40.0,32.1,29.88,SE,135,0.0,0.0,73,0.00,,---,0.00,VWS V13.01,2013-01-08 04:28:00,
2013-01-07 20:33:00,40.0,32.1,29.88,SE,135,0.0,0.0,73,0.00,,---,0.00,VWS V13.01,2013-01-08 04:33:00,
2013-01-07 20:38:00,40.0,32.1,29.88,SE,135,0.0,0.0,73,0.00,,---,0.00,VWS V13.01,2013-01-08 04:38:00,
2013-01-07 20:43:00,40.0,32.1,29.88,SE,135,0.0,0.0,73,0.00,,---,0.00,VWS V13.01,2013-01-08 04:43:00,
2013-01-07 20:48:00,39.0,31.1,29.88,SE,135,0.0,0.0,73,0.00,,---,0.00,VWS V13.01,2013-01-08 04:48:00,
2013-01-07 20:53:00,39.0,31.1,29.87,SE,135,0.0,0.0,73,0.00,,---,0.00,VWS V13.01,2013-01-08 04:53:00,
2013-01-07 20:58:00,40.0,32.1,29.87,ESE,112,2.0,3.0,73,0.00,,---,0.00,VWS V13.01,2013-01-08 04:58:00,
2013-01-07 21:00:00,41.0,33.0,29.87,SE,135,0.0,2.0,73,0.00,,---,0.00,VWS V13.01,2013-01-08 05:00:00,
2013-01-07 21:02:00,41.0,33.0,29.87,SE,135,2.0,2.0,73,0.00,,---,0.00,VWS V13.01,2013-01-08 05:02:00,
2013-01-07 21:07:00,41.0,33.0,29.87,ESE,112,3.0,3.0,73,0.00,,---,0.00,VWS V13.01,2013-01-08 05:07:00,
2013-01-07 21:12:00,42.0,34.3,29.87,ESE,112,0.0,0.0,74,0.00,,---,0.00,VWS V13.01,2013-01-08 05:12:00,
2013-01-07 21:17:00,41.0,33.0,29.87,ESE,112,0.0,0.0,73,0.00,,---,0.00,VWS V13.01,2013-01-08 05:17:00,
2013-01-07 21:22:00,41.0,33.4,29.88,ESE,112,0.0,0.0,74,0.00,,---,0.00,VWS V13.01,2013-01-08 05:22:00,
2013-01-07 21:27:00,41.0,33.0,29.88,ESE,112,2.0,2.0,73,0.00,,---,0.00,VWS V13.01,2013-01-08 05:27:00,
2013-01-07 21:32:00,42.0,34.3,29.87,SE,135,2.0,3.0,74,0.00,,---,0.00,VWS V13.01,2013-01-08 05:32:00,
2013-01-07 21:37:00,41.0,33.0,29.87,SE,135,0.0,0.0,73,0.00,,---,0.00,VWS V13.01,2013-01-08 05:37:00,
2013-01-07 21:42:00,41.0,33.4,29.88,SE,135,0.0,0.0,74,0.00,,---,0.00,VWS V13.01,2013-01-08 05:42:00,
2013-01-07 21:47:00,41.0,33.0,29.88,SE,135,0.0,0.0,73,0.00,,---,0.00,VWS V13.01,2013-01-08 05:47:00,
2013-01-07 21:52:00,41.0,33.4,29.87,ESE,112,0.0,0.0,74,0.00,,---,0.00,VWS V13.01,2013-01-08 05:52:00,
2013-01-07 21:57:00,41.0,33.0,29.87,SE,135,0.0,0.0,73,0.00,,---,0.00,VWS V13.01,2013-01-08 05:57:00,
2013-01-07 22:02:00,41.0,33.4,29.88,SE,135,0.0,0.0,74,0.00,,---,0.00,VWS V13.01,2013-01-08 06:02:00,
2013-01-07 22:07:00,41.0,33.0,29.88,SE,135,0.0,0.0,73,0.00,,---,0.00,VWS V13.01,2013-01-08 06:07:00,
2013-01-07 22:12:00,41.0,33.4,29.88,SE,135,0.0,0.0,74,0.00,,---,0.00,VWS V13.01,2013-01-08 06:12:00,
2013-01-07 22:17:00,41.0,33.0,29.88,SE,135,0.0,0.0,73,0.00,,---,0.00,VWS V13.01,2013-01-08 06:17:00,
2013-01-07 22:22:00,41.0,33.4,29.90,SE,135,0.0,0.0,74,0.00,,---,0.00,VWS V13.01,2013-01-08 06:22:00,
2013-01-07 22:27:00,40.0,32.1,29.90,SE,135,0.0,0.0,73,0.00,,---,0.00,VWS V13.01,2013-01-08 06:27:00,
2013-01-07 22:32:00,39.0,31.4,29.90,SE,135,0.0,0.0,74,0.00,,---,0.00,VWS V13.01,2013-01-08 06:32:00,
2013-01-07 22:37:00,39.0,31.1,29.90,SE,135,0.0,0.0,73,0.00,,---,0.00,VWS V13.01,2013-01-08 06:37:00,
2013-01-07 22:42:00,39.0,31.4,29.89,SE,135,0.0,0.0,74,0.00,,---,0.00,VWS V13.01,2013-01-08 06:42:00,
2013-01-07 22:47:00,38.0,30.1,29.89,SE,135,0.0,0.0,73,0.00,,---,0.00,VWS V13.01,2013-01-08 06:47:00,
2013-01-07 22:52:00,38.0,30.5,29.91,SE,135,0.0,0.0,74,0.00,,---,0.00,VWS V13.01,2013-01-08 06:52:00,
2013-01-07 22:57:00,38.0,30.1,29.91,SE,135,0.0,0.0,73,0.00,,---,0.00,VWS V13.01,2013-01-08 06:57:00,
2013-01-07 23:02:00,38.0,30.5,29.90,SE,135,0.0,0.0,74,0.00,,---,0.00,VWS V13.01,2013-01-08 07:02:00,
2013-01-07 23:07:00,38.0,30.1,29.90,ESE,112,0.0,1.0,73,0.00,,---,0.00,VWS V13.01,2013-01-08 07:07:00,
2013-01-07 23:12:00,39.0,31.4,29.89,ESE,112,0.0,0.0,74,0.00,,---,0.00,VWS V13.01,2013-01-08 07:12:00,
2013-01-07 23:17:00,39.0,31.1,29.89,ESE,112,0.0,0.0,73,0.00,,---,0.00,VWS V13.01,2013-01-08 07:17:00,
2013-01-07 23:22:00,40.0,32.4,29.91,ESE,112,0.0,0.0,74,0.00,,---,0.00,VWS V13.01,2013-01-08 07:22:00,
2013-01-07 23:27:00,39.0,31.1,29.91,ESE,112,0.0,0.0,73,0.00,,---,0.00,VWS V13.01,2013-01-08 07:27:00,
2013-01-07 23:32:00,39.0,31.4,29.90,ESE,112,0.0,0.0,74,0.00,,---,0.00,VWS V13.01,2013-01-08 07:32:00,
2013-01-07 23:37:00,39.0,31.1,29.90,ESE,112,0.0,0.0,73,0.00,,---,0.00,VWS V13.01,2013-01-08 07:37:00,
2013-01-07 23:42:00,39.0,31.4,29.89,ESE,112,0.0,2.0,74,0.00,,---,0.00,VWS V13.01,2013-01-08 07:42:00,
2013-01-07 23:47:00,39.0,31.1,29.89,ESE,112,0.0,0.0,73,0.00,,---,0.00,VWS V13.01,2013-01-08 07:47:00,
2013-01-07 23:52:00,40.0,32.4,29.90,ESE,112,0.0,1.0,74,0.00,,---,0.00,VWS V13.01,2013-01-08 07:52:00,
2013-01-07 23:57:00,40.0,32.1,29.90,SE,135,0.0,1.0,73,0.00,,---,0.00,VWS V13.01,2013-01-08 07:57:00,